{"data":{"norad_id":66682,"epoch":"2026-09-19T10:29:16.333440Z","epoch_age_seconds":212751,"freshness":"STALE","line1":"1 66682U 25276S   26262.43699460 -.00000069  00000+0 -10841-5 0  9994","line2":"2 66682  97.5204 329.7258 0004805 205.1493 154.9496 14.98044033 44185","mean_motion":14.98044033,"eccentricity":0.0004805,"inclination_deg":97.5204,"raan_deg":329.7258,"arg_perigee_deg":205.1493,"mean_anomaly_deg":154.9496,"bstar":-1.0841e-6,"rev_number":4418,"period_min":96.12534533556,"perigee_km":569.60036830481,"apogee_km":576.28035364871,"semimajor_km":6951.0773609768,"source":"CELESTRAK","updated_at":"2026-09-21T09:00:16.123805Z"}}